Find Varuna TDM

NORAD ID: 53754 Int'l Des: 2022-107 Owner: BOHB/SFLIN Country: US operational
LEO

現在のビュー

3D地球を読み込み中...

About Varuna TDM

Varuna TDM (NORAD 53754) is a satellite launched Sep 5, 2022 by BOHB/SFLIN of US. It operates in LEO orbit with a mass of 180.00 kg.

次回通過

Passes for default location (London). Set your location on the main map for personalized predictions.

高度履歴

Loading altitude history...

軌道要素

1 53754U 22107BG 26194.16212605 .00002244 00000-0 12670-3 0 9992
2 53754 53.2373 110.3577 0392825 299.0132 57.2011 14.69908951206363
Epoch: Jul 13, 2026 • Age: 22 hours

現在のステータス

高度 636.8 km
遠地点 / 近地点 N/A
速度 7.56 km/s
衛星直下点 -28.46°S, 13.63°W
打ち上げ日 Sep 5, 2022
運用期間 3.8 years
タイプ other

技術仕様

分類 Payload
質量 180.00 kg
乾燥質量 140.00 kg
総質量 180.00 kg
長さ 0.80 m
直径 1.40 m
スパン 1.40 m
形状 Hex Cyl + 2 boxes
製造者 SFLIN/ADIG
バスタイプ ESPA/Sherpa-LTE
フェーズステータス In Orbit
所有者/国 BOHB/SFLIN/US

Most Searched